Year,Month,Day,Hour,Minute,Value (Times are PST for windgust in km/hr)
2016,07,06,00,00,1.60
2016,07,06,00,02,1.60
2016,07,06,00,09,1.60
2016,07,06,00,10,1.60
2016,07,06,00,11,1.60
2016,07,06,00,12,1.60
2016,07,06,00,13,3.20
2016,07,06,00,14,3.20
2016,07,06,00,29,1.60
2016,07,06,00,30,1.60
2016,07,06,00,31,3.20
2016,07,06,00,32,1.60
2016,07,06,00,50,1.60
2016,07,06,00,51,3.20
2016,07,06,00,52,1.60
2016,07,06,00,53,1.60
2016,07,06,01,00,1.60
2016,07,06,01,01,1.60
2016,07,06,01,10,1.60
2016,07,06,01,17,1.60
2016,07,06,01,18,3.20
2016,07,06,01,19,1.60
2016,07,06,01,20,1.60
2016,07,06,01,21,1.60
2016,07,06,01,27,1.60
2016,07,06,01,29,1.60
2016,07,06,01,32,1.60
2016,07,06,01,33,1.60
2016,07,06,01,37,3.20
2016,07,06,01,38,3.20
2016,07,06,01,39,3.20
2016,07,06,01,40,1.60
2016,07,06,01,41,1.60
2016,07,06,01,42,1.60
2016,07,06,01,43,1.60
2016,07,06,01,44,1.60
2016,07,06,01,45,1.60
2016,07,06,01,46,1.60
2016,07,06,01,47,1.60
2016,07,06,01,48,1.60
2016,07,06,01,49,1.60
2016,07,06,02,23,1.60
2016,07,06,02,24,1.60
2016,07,06,02,25,1.60
2016,07,06,02,26,1.60
2016,07,06,02,28,1.60
2016,07,06,03,42,1.60
2016,07,06,03,43,3.20
2016,07,06,03,44,1.60
2016,07,06,04,03,3.20
2016,07,06,04,04,3.20
2016,07,06,04,05,1.60
2016,07,06,04,06,1.60
2016,07,06,04,09,1.60
2016,07,06,04,10,1.60
2016,07,06,04,11,1.60
2016,07,06,04,12,3.20
2016,07,06,04,13,3.20
2016,07,06,04,14,1.60
2016,07,06,04,15,1.60
2016,07,06,04,16,3.20
2016,07,06,04,17,3.20
2016,07,06,04,18,1.60
2016,07,06,08,00,4.80
2016,07,06,08,01,3.20
2016,07,06,08,02,3.20
2016,07,06,08,03,3.20
2016,07,06,08,04,3.20
2016,07,06,08,05,1.60
2016,07,06,08,06,3.20
2016,07,06,08,07,1.60
2016,07,06,08,15,3.20
2016,07,06,08,16,3.20
2016,07,06,08,17,1.60
2016,07,06,08,18,1.60
2016,07,06,08,19,1.60
2016,07,06,08,20,1.60
2016,07,06,08,21,1.60
2016,07,06,08,22,4.80
2016,07,06,08,23,4.80
2016,07,06,08,26,3.20
2016,07,06,08,27,1.60
2016,07,06,08,29,3.20
2016,07,06,08,30,3.20
2016,07,06,08,31,4.80
2016,07,06,08,32,4.80
2016,07,06,08,33,3.20
2016,07,06,08,34,4.80
2016,07,06,08,35,3.20
2016,07,06,08,36,3.20
2016,07,06,08,37,1.60
2016,07,06,08,38,4.80
2016,07,06,08,39,3.20
2016,07,06,08,40,4.80
2016,07,06,08,41,3.20
2016,07,06,08,42,6.40
2016,07,06,08,43,4.80
2016,07,06,08,44,4.80
2016,07,06,08,45,4.80
2016,07,06,08,46,4.80
2016,07,06,08,47,4.80
2016,07,06,08,48,4.80
2016,07,06,08,49,6.40
2016,07,06,08,50,6.40
2016,07,06,08,51,6.40
2016,07,06,08,52,8.10
2016,07,06,08,53,9.60
2016,07,06,08,54,6.40
2016,07,06,08,55,4.80
2016,07,06,08,56,3.20
2016,07,06,08,57,4.80
2016,07,06,08,58,3.20
2016,07,06,08,59,4.80
2016,07,06,09,00,3.20
2016,07,06,09,01,4.80
2016,07,06,09,02,6.40
2016,07,06,09,03,3.20
2016,07,06,09,04,4.80
2016,07,06,09,05,3.20
2016,07,06,09,06,3.20
2016,07,06,09,07,6.40
2016,07,06,09,08,6.40
2016,07,06,09,09,4.80
2016,07,06,09,10,8.10
2016,07,06,09,11,6.40
2016,07,06,09,12,4.80
2016,07,06,09,13,8.10
2016,07,06,09,14,6.40
2016,07,06,09,15,8.10
2016,07,06,09,16,3.20
2016,07,06,09,17,6.40
2016,07,06,09,18,9.60
2016,07,06,09,19,6.40
2016,07,06,09,20,4.80
2016,07,06,09,21,8.10
2016,07,06,09,22,6.40
2016,07,06,09,23,8.10
2016,07,06,09,24,6.40
2016,07,06,09,25,6.40
2016,07,06,09,26,4.80
2016,07,06,09,27,6.40
2016,07,06,09,28,6.40
2016,07,06,09,29,6.40
2016,07,06,09,30,8.10
2016,07,06,09,31,6.40
2016,07,06,09,32,8.10
2016,07,06,09,33,6.40
2016,07,06,09,34,3.20
2016,07,06,09,35,4.80
2016,07,06,09,36,8.10
2016,07,06,09,37,4.80
2016,07,06,09,38,8.10
2016,07,06,09,39,11.30
2016,07,06,09,40,9.60
2016,07,06,09,41,9.60
2016,07,06,09,42,6.40
2016,07,06,09,43,8.10
2016,07,06,09,44,3.20
2016,07,06,09,45,6.40
2016,07,06,09,46,4.80
2016,07,06,09,47,6.40
2016,07,06,09,48,4.80
2016,07,06,09,49,8.10
2016,07,06,09,50,11.30
2016,07,06,09,51,11.30
2016,07,06,09,52,9.60
2016,07,06,09,53,8.10
2016,07,06,09,54,12.90
2016,07,06,09,55,6.40
2016,07,06,09,56,6.40
2016,07,06,09,57,3.20
2016,07,06,09,58,4.80
2016,07,06,09,59,3.20
2016,07,06,10,00,6.40
2016,07,06,10,01,8.10
2016,07,06,10,02,4.80
2016,07,06,10,03,3.20
2016,07,06,10,04,6.40
2016,07,06,10,05,8.10
2016,07,06,10,06,4.80
2016,07,06,10,07,3.20
2016,07,06,10,08,3.20
2016,07,06,10,09,3.20
2016,07,06,10,10,3.20
2016,07,06,10,11,3.20
2016,07,06,10,12,12.90
2016,07,06,10,13,8.10
2016,07,06,10,14,8.10
2016,07,06,10,15,8.10
2016,07,06,10,16,6.40
2016,07,06,10,17,8.10
2016,07,06,10,18,12.90
2016,07,06,10,19,8.10
2016,07,06,10,20,11.30
2016,07,06,10,21,6.40
2016,07,06,10,22,8.10
2016,07,06,10,23,11.30
2016,07,06,10,24,8.10
2016,07,06,10,25,11.30
2016,07,06,10,26,8.10
2016,07,06,10,27,14.50
2016,07,06,10,28,4.80
2016,07,06,10,29,4.80
2016,07,06,10,30,14.50
2016,07,06,10,31,11.30
2016,07,06,10,32,11.30
2016,07,06,10,33,8.10
2016,07,06,10,34,4.80
2016,07,06,10,35,4.80
2016,07,06,10,36,12.90
2016,07,06,10,37,4.80
2016,07,06,10,38,6.40
2016,07,06,10,39,11.30
2016,07,06,10,40,9.60
2016,07,06,10,41,14.50
2016,07,06,10,42,14.50
2016,07,06,10,43,12.90
2016,07,06,10,44,8.10
2016,07,06,10,45,16.10
2016,07,06,10,46,6.40
2016,07,06,10,47,11.30
2016,07,06,10,48,8.10
2016,07,06,10,49,11.30
2016,07,06,10,50,8.10
2016,07,06,10,51,14.50
2016,07,06,10,52,4.80
2016,07,06,10,53,16.10
2016,07,06,10,54,11.30
2016,07,06,10,55,16.10
2016,07,06,10,56,12.90
2016,07,06,10,57,11.30
2016,07,06,10,58,9.60
2016,07,06,10,59,9.60
2016,07,06,11,00,9.60
2016,07,06,11,01,4.80
2016,07,06,11,02,11.30
2016,07,06,11,03,11.30
2016,07,06,11,04,12.90
2016,07,06,11,05,9.60
2016,07,06,11,06,8.10
2016,07,06,11,07,8.10
2016,07,06,11,08,4.80
2016,07,06,11,09,6.40
2016,07,06,11,10,6.40
2016,07,06,11,11,4.80
2016,07,06,11,12,8.10
2016,07,06,11,13,6.40
2016,07,06,11,14,9.60
2016,07,06,11,15,12.90
2016,07,06,11,16,12.90
2016,07,06,11,17,6.40
2016,07,06,11,18,6.40
2016,07,06,11,19,8.10
2016,07,06,11,20,11.30
2016,07,06,11,21,6.40
2016,07,06,11,22,11.30
2016,07,06,11,23,11.30
2016,07,06,11,24,9.60
2016,07,06,11,25,14.50
2016,07,06,11,26,8.10
2016,07,06,11,27,9.60
2016,07,06,11,28,8.10
2016,07,06,11,29,8.10
2016,07,06,11,30,12.90
2016,07,06,11,31,11.30
2016,07,06,11,32,11.30
2016,07,06,11,33,11.30
2016,07,06,11,34,9.60
2016,07,06,11,35,14.50
2016,07,06,11,36,12.90
2016,07,06,11,37,14.50
2016,07,06,11,38,11.30
2016,07,06,11,39,6.40
2016,07,06,11,40,14.50
2016,07,06,11,41,12.90
2016,07,06,11,42,4.80
2016,07,06,11,43,12.90
2016,07,06,11,44,8.10
2016,07,06,11,45,6.40
2016,07,06,11,46,9.60
2016,07,06,11,47,12.90
2016,07,06,11,48,11.30
2016,07,06,11,49,9.60
2016,07,06,11,50,6.40
2016,07,06,11,51,12.90
2016,07,06,11,52,12.90
2016,07,06,11,53,9.60
2016,07,06,11,54,8.10
2016,07,06,11,55,6.40
2016,07,06,11,56,11.30
2016,07,06,11,57,16.10
2016,07,06,11,58,12.90
2016,07,06,11,59,14.50
2016,07,06,12,00,14.50
2016,07,06,12,01,4.80
2016,07,06,12,02,12.90
2016,07,06,12,03,17.70
2016,07,06,12,04,11.30
2016,07,06,12,05,11.30
2016,07,06,12,06,11.30
2016,07,06,12,07,17.70
2016,07,06,12,08,17.70
2016,07,06,12,09,12.90
2016,07,06,12,10,14.50
2016,07,06,12,11,17.70
2016,07,06,12,12,16.10
2016,07,06,12,13,16.10
2016,07,06,12,14,14.50
2016,07,06,12,15,12.90
2016,07,06,12,16,16.10
2016,07,06,12,17,17.70
2016,07,06,12,18,14.50
2016,07,06,12,19,14.50
2016,07,06,12,20,14.50
2016,07,06,12,21,12.90
2016,07,06,12,22,12.90
2016,07,06,12,23,6.40
2016,07,06,12,24,12.90
2016,07,06,12,25,8.10
2016,07,06,12,26,11.30
2016,07,06,12,27,12.90
2016,07,06,12,28,12.90
2016,07,06,12,29,12.90
2016,07,06,12,30,12.90
2016,07,06,12,31,8.10
2016,07,06,12,32,12.90
2016,07,06,12,33,12.90
2016,07,06,12,34,12.90
2016,07,06,12,35,11.30
2016,07,06,12,36,8.10
2016,07,06,12,37,14.50
2016,07,06,12,38,9.60
2016,07,06,12,39,14.50
2016,07,06,12,40,17.70
2016,07,06,12,41,17.70
2016,07,06,12,42,14.50
2016,07,06,12,43,16.10
2016,07,06,12,44,20.90
2016,07,06,12,45,14.50
2016,07,06,12,46,14.50
2016,07,06,12,47,9.60
2016,07,06,12,48,16.10
2016,07,06,12,49,11.30
2016,07,06,12,50,6.40
2016,07,06,12,51,11.30
2016,07,06,12,52,16.10
2016,07,06,12,53,16.10
2016,07,06,12,54,16.10
2016,07,06,12,55,11.30
2016,07,06,12,56,17.70
2016,07,06,12,57,12.90
2016,07,06,12,58,14.50
2016,07,06,12,59,14.50
2016,07,06,13,00,12.90
2016,07,06,13,01,8.10
2016,07,06,13,02,8.10
2016,07,06,13,03,14.50
2016,07,06,13,04,8.10
2016,07,06,13,05,9.60
2016,07,06,13,06,17.70
2016,07,06,13,07,12.90
2016,07,06,13,08,14.50
2016,07,06,13,09,12.90
2016,07,06,13,10,11.30
2016,07,06,13,11,11.30
2016,07,06,13,12,12.90
2016,07,06,13,13,12.90
2016,07,06,13,14,12.90
2016,07,06,13,15,17.70
2016,07,06,13,16,11.30
2016,07,06,13,17,4.80
2016,07,06,13,18,11.30
2016,07,06,13,19,12.90
2016,07,06,13,20,19.30
2016,07,06,13,21,9.60
2016,07,06,13,22,12.90
2016,07,06,13,23,6.40
2016,07,06,13,24,11.30
2016,07,06,13,25,9.60
2016,07,06,13,26,14.50
2016,07,06,13,27,12.90
2016,07,06,13,28,14.50
2016,07,06,13,29,4.80
2016,07,06,13,30,11.30
2016,07,06,13,31,4.80
2016,07,06,13,32,14.50
2016,07,06,13,33,8.10
2016,07,06,13,34,6.40
2016,07,06,13,35,16.10
2016,07,06,13,36,11.30
2016,07,06,13,37,6.40
2016,07,06,13,38,17.70
2016,07,06,13,39,16.10
2016,07,06,13,40,14.50
2016,07,06,13,41,11.30
2016,07,06,13,42,9.60
2016,07,06,13,43,11.30
2016,07,06,13,44,17.70
2016,07,06,13,45,11.30
2016,07,06,13,46,11.30
2016,07,06,13,47,12.90
2016,07,06,13,48,12.90
2016,07,06,13,49,11.30
2016,07,06,13,50,8.10
2016,07,06,13,51,8.10
2016,07,06,13,52,11.30
2016,07,06,13,53,14.50
2016,07,06,13,54,8.10
2016,07,06,13,55,11.30
2016,07,06,13,56,8.10
2016,07,06,13,57,11.30
2016,07,06,13,58,19.30
2016,07,06,13,59,11.30
2016,07,06,14,00,9.60
2016,07,06,14,01,11.30
2016,07,06,14,02,12.90
2016,07,06,14,03,12.90
2016,07,06,14,04,16.10
2016,07,06,14,05,12.90
2016,07,06,14,06,16.10
2016,07,06,14,07,9.60
2016,07,06,14,08,11.30
2016,07,06,14,09,9.60
2016,07,06,14,10,8.10
2016,07,06,14,11,12.90
2016,07,06,14,12,8.10
2016,07,06,14,13,6.40
2016,07,06,14,14,16.10
2016,07,06,14,15,9.60
2016,07,06,14,16,14.50
2016,07,06,14,17,11.30
2016,07,06,14,18,11.30
2016,07,06,14,19,16.10
2016,07,06,14,20,17.70
2016,07,06,14,21,14.50
2016,07,06,14,22,12.90
2016,07,06,14,23,17.70
2016,07,06,14,24,17.70
2016,07,06,14,25,16.10
2016,07,06,14,26,8.10
2016,07,06,14,27,8.10
2016,07,06,14,28,17.70
2016,07,06,14,29,17.70
2016,07,06,14,30,6.40
2016,07,06,14,31,14.50
2016,07,06,14,32,12.90
2016,07,06,14,33,11.30
2016,07,06,14,34,17.70
2016,07,06,14,35,17.70
2016,07,06,14,36,12.90
2016,07,06,14,37,14.50
2016,07,06,14,38,6.40
2016,07,06,14,39,14.50
2016,07,06,14,40,12.90
2016,07,06,14,41,6.40
2016,07,06,14,42,12.90
2016,07,06,14,43,14.50
2016,07,06,14,44,6.40
2016,07,06,14,45,4.80
2016,07,06,14,46,9.60
2016,07,06,14,47,11.30
2016,07,06,14,48,12.90
2016,07,06,14,49,12.90
2016,07,06,14,50,12.90
2016,07,06,14,51,14.50
2016,07,06,14,52,8.10
2016,07,06,14,53,12.90
2016,07,06,14,54,8.10
2016,07,06,14,55,9.60
2016,07,06,14,56,16.10
2016,07,06,14,57,6.40
2016,07,06,14,58,14.50
2016,07,06,14,59,12.90
2016,07,06,15,00,8.10
2016,07,06,15,01,4.80
2016,07,06,15,02,12.90
2016,07,06,15,03,12.90
2016,07,06,15,04,11.30
2016,07,06,15,05,8.10
2016,07,06,15,06,8.10
2016,07,06,15,07,12.90
2016,07,06,15,08,17.70
2016,07,06,15,09,11.30
2016,07,06,15,10,12.90
2016,07,06,15,11,14.50
2016,07,06,15,12,16.10
2016,07,06,15,13,14.50
2016,07,06,15,14,12.90
2016,07,06,15,15,14.50
2016,07,06,15,16,8.10
2016,07,06,15,17,11.30
2016,07,06,15,18,14.50
2016,07,06,15,19,8.10
2016,07,06,15,20,8.10
2016,07,06,15,21,9.60
2016,07,06,15,22,9.60
2016,07,06,15,23,11.30
2016,07,06,15,24,6.40
2016,07,06,15,25,11.30
2016,07,06,15,26,8.10
2016,07,06,15,27,11.30
2016,07,06,15,28,14.50
2016,07,06,15,29,16.10
2016,07,06,15,30,14.50
2016,07,06,15,31,12.90
2016,07,06,15,32,6.40
2016,07,06,15,33,6.40
2016,07,06,15,34,14.50
2016,07,06,15,35,14.50
2016,07,06,15,36,12.90
2016,07,06,15,37,11.30
2016,07,06,15,38,12.90
2016,07,06,15,39,14.50
2016,07,06,15,40,16.10
2016,07,06,15,41,14.50
2016,07,06,15,42,17.70
2016,07,06,15,43,9.60
2016,07,06,15,44,9.60
2016,07,06,15,45,6.40
2016,07,06,15,46,12.90
2016,07,06,15,47,16.10
2016,07,06,15,48,8.10
2016,07,06,15,49,6.40
2016,07,06,15,50,9.60
2016,07,06,15,51,4.80
2016,07,06,15,52,4.80
2016,07,06,15,53,8.10
2016,07,06,15,54,9.60
2016,07,06,15,55,11.30
2016,07,06,15,56,4.80
2016,07,06,15,57,4.80
2016,07,06,15,58,8.10
2016,07,06,15,59,9.60
2016,07,06,16,00,14.50
2016,07,06,16,01,11.30
2016,07,06,16,02,11.30
2016,07,06,16,03,3.20
2016,07,06,16,04,3.20
2016,07,06,16,05,3.20
2016,07,06,16,06,8.10
2016,07,06,16,07,8.10
2016,07,06,16,08,4.80
2016,07,06,16,09,8.10
2016,07,06,16,10,4.80
2016,07,06,16,11,12.90
2016,07,06,16,12,11.30
2016,07,06,16,13,8.10
2016,07,06,16,14,6.40
2016,07,06,16,15,9.60
2016,07,06,16,16,6.40
2016,07,06,16,17,8.10
2016,07,06,16,18,3.20
2016,07,06,16,19,6.40
2016,07,06,16,20,12.90
2016,07,06,16,21,8.10
2016,07,06,16,22,11.30
2016,07,06,16,23,14.50
2016,07,06,16,24,11.30
2016,07,06,16,25,9.60
2016,07,06,16,26,12.90
2016,07,06,16,27,9.60
2016,07,06,16,28,9.60
2016,07,06,16,29,11.30
2016,07,06,16,30,4.80
2016,07,06,16,31,4.80
2016,07,06,16,32,12.90
2016,07,06,16,33,9.60
2016,07,06,16,34,9.60
2016,07,06,16,35,3.20
2016,07,06,16,36,4.80
2016,07,06,16,37,4.80
2016,07,06,16,38,6.40
2016,07,06,16,39,6.40
2016,07,06,16,40,4.80
2016,07,06,16,41,4.80
2016,07,06,16,42,6.40
2016,07,06,16,43,6.40
2016,07,06,16,44,8.10
2016,07,06,16,45,3.20
2016,07,06,16,46,1.60
2016,07,06,16,47,8.10
2016,07,06,16,48,8.10
2016,07,06,16,49,4.80
2016,07,06,16,50,4.80
2016,07,06,16,51,3.20
2016,07,06,16,52,3.20
2016,07,06,16,53,6.40
2016,07,06,16,54,4.80
2016,07,06,16,55,6.40
2016,07,06,16,56,4.80
2016,07,06,16,57,8.10
2016,07,06,16,58,3.20
2016,07,06,16,59,12.90
2016,07,06,17,00,6.40
2016,07,06,17,01,8.10
2016,07,06,17,02,9.60
2016,07,06,17,03,3.20
2016,07,06,17,04,3.20
2016,07,06,17,05,6.40
2016,07,06,17,06,3.20
2016,07,06,17,07,4.80
2016,07,06,17,08,4.80
2016,07,06,17,09,3.20
2016,07,06,17,10,8.10
2016,07,06,17,11,6.40
2016,07,06,17,12,6.40
2016,07,06,17,13,6.40
2016,07,06,17,14,6.40
2016,07,06,17,15,6.40
2016,07,06,17,16,6.40
2016,07,06,17,17,6.40
2016,07,06,17,18,6.40
2016,07,06,17,19,9.60
2016,07,06,17,20,8.10
2016,07,06,17,21,4.80
2016,07,06,17,22,6.40
2016,07,06,17,23,4.80
2016,07,06,17,24,4.80
2016,07,06,17,25,6.40
2016,07,06,17,26,6.40
2016,07,06,17,27,6.40
2016,07,06,17,28,6.40
2016,07,06,17,29,6.40
2016,07,06,17,30,4.80
2016,07,06,17,31,4.80
2016,07,06,17,32,4.80
2016,07,06,17,33,4.80
2016,07,06,17,34,8.10
2016,07,06,17,35,4.80
2016,07,06,17,36,3.20
2016,07,06,17,37,6.40
2016,07,06,17,38,3.20
2016,07,06,17,39,4.80
2016,07,06,17,40,1.60
2016,07,06,17,41,1.60
2016,07,06,17,42,1.60
2016,07,06,17,43,4.80
2016,07,06,17,44,6.40
2016,07,06,17,45,4.80
2016,07,06,17,46,4.80
2016,07,06,17,47,9.60
2016,07,06,17,48,4.80
2016,07,06,17,49,4.80
2016,07,06,17,50,3.20
2016,07,06,17,51,6.40
2016,07,06,17,52,4.80
2016,07,06,17,53,8.10
2016,07,06,17,54,6.40
2016,07,06,17,55,4.80
2016,07,06,17,56,3.20
2016,07,06,17,57,3.20
2016,07,06,17,58,3.20
2016,07,06,17,59,1.60
2016,07,06,18,00,3.20
2016,07,06,18,01,3.20
2016,07,06,18,02,3.20
2016,07,06,18,03,6.40
2016,07,06,18,04,8.10
2016,07,06,18,05,1.60
2016,07,06,18,06,1.60
2016,07,06,18,07,3.20
2016,07,06,18,08,4.80
2016,07,06,18,09,1.60
2016,07,06,18,10,1.60
2016,07,06,18,14,3.20
2016,07,06,18,15,4.80
2016,07,06,18,16,1.60
2016,07,06,18,17,3.20
2016,07,06,18,18,6.40
2016,07,06,18,19,3.20
2016,07,06,18,20,1.60
2016,07,06,18,21,3.20
2016,07,06,18,22,3.20
2016,07,06,18,23,3.20
2016,07,06,18,24,3.20
2016,07,06,18,25,3.20
2016,07,06,18,26,3.20
2016,07,06,18,27,3.20
2016,07,06,18,28,3.20
2016,07,06,18,29,3.20
2016,07,06,18,30,3.20
2016,07,06,18,31,1.60
2016,07,06,18,32,3.20
2016,07,06,18,33,1.60
2016,07,06,18,34,1.60
2016,07,06,18,35,3.20
2016,07,06,18,36,4.80
2016,07,06,18,37,3.20
2016,07,06,18,38,4.80
2016,07,06,18,39,3.20
2016,07,06,18,40,3.20
2016,07,06,18,41,1.60
2016,07,06,18,42,3.20
2016,07,06,18,44,1.60
2016,07,06,18,45,3.20
2016,07,06,18,46,1.60
2016,07,06,18,47,1.60
2016,07,06,18,48,3.20
2016,07,06,18,49,3.20
2016,07,06,18,50,8.10
2016,07,06,18,51,3.20
2016,07,06,18,52,1.60
2016,07,06,18,53,1.60
2016,07,06,18,54,4.80
2016,07,06,18,55,3.20
2016,07,06,18,57,3.20
2016,07,06,18,58,8.10
2016,07,06,18,59,3.20
2016,07,06,19,00,1.60
2016,07,06,19,01,1.60
2016,07,06,19,03,1.60
2016,07,06,19,04,3.20
2016,07,06,19,05,4.80
2016,07,06,19,06,4.80
2016,07,06,19,07,1.60
2016,07,06,19,08,1.60
2016,07,06,19,09,1.60
2016,07,06,19,11,4.80
2016,07,06,19,12,4.80
2016,07,06,19,13,1.60
2016,07,06,19,14,4.80
2016,07,06,19,15,1.60
2016,07,06,19,16,1.60
2016,07,06,19,17,1.60
2016,07,06,20,19,1.60
2016,07,06,20,20,1.60
2016,07,06,20,21,1.60
2016,07,06,21,49,4.80
2016,07,06,21,50,4.80
2016,07,06,21,51,3.20
2016,07,06,21,52,1.60
2016,07,06,21,53,3.20
2016,07,06,21,54,3.20
2016,07,06,21,55,3.20
2016,07,06,21,56,3.20
2016,07,06,21,57,3.20
2016,07,06,21,58,4.80
2016,07,06,21,59,3.20
2016,07,06,22,00,3.20
2016,07,06,22,01,3.20
2016,07,06,22,02,3.20
2016,07,06,22,03,1.60
2016,07,06,22,32,1.60
2016,07,06,22,33,1.60
